Home > Weather > Traun > Past weeks

Flag for Austria Past Weather in Traun, Upper Austria, Austria — Yesterday and Last 2 Weeks

Now
70 °F

Sunny.


Feels Like: 70 °F
Forecast: 58 / 83 °F
Wind: 9 mph from Southeast

Location: Linz / Hoersching-Flughafen

Current Time: Aug 25, 2016 at 10:22:44 AM

Latest Report: Aug 25, 2016 at 9:50 AM


Visibility: 10 mi

Pressure: 30.18 "Hg

Humidity: 64%

Dew Point: 57 °F

Location of TraunLocation

Past Weather in Traun — Graph

°F

Traun Temperature Yesterday

Maximum temperature yesterday: 81 °F (at 4:50 PM)
Minimum temperature yesterday: 55 °F (at 6:20 AM)
Average temperature yesterday: 69 °F

High & Low Weather Summary for the Past Weeks

 TemperatureHumidityPressure
High82 °F (Aug 14, 3:20 PM)100% (Aug 11, 1:20 AM)30.42 "Hg (Aug 11, 1:20 AM)
Low48 °F (Aug 12, 2:20 AM)30% (Aug 20, 5:20 PM)29.80 "Hg (Aug 18, 4:20 PM)
Average65 °F75%30.13 "Hg
* Reported Aug 10 8:20 AM — Aug 25 8:50 AM, Traun, Weather by CustomWeather, © 2016

Note: Actual official high and low records may vary slightly from our data, if they occured in-between our weather recording intervals... More about our weather records

Advertising

Traun Weather History for the Previous 24 Hours

Scroll right to see more
 ConditionsComfort  
Time TempWeatherWind HumidityBarometerVisibility
8:50 AM
Thu, Aug 25
66 °FSunny.7 mph68%30.21 "Hg10 mi
8:20 AM64 °FSunny.8 mph73%30.21 "Hg10 mi
7:50 AM63 °FSunny.6 mph77%30.21 "Hg10 mi
7:20 AM61 °FPassing clouds.3 mph83%30.21 "HgN/A
6:50 AM59 °FClear.3 mph88%30.21 "Hg10 mi
6:20 AM59 °FClear.5 mph88%30.21 "Hg10 mi
5:50 AM57 °FClear.7 mph88%30.21 "Hg10 mi
5:20 AM59 °FClear.5 mph88%30.21 "Hg10 mi
4:50 AM59 °FClear.5 mph88%30.21 "Hg10 mi
4:20 AM59 °FClear.7 mph94%30.21 "Hg10 mi
3:50 AM61 °FClear.8 mph88%30.21 "Hg10 mi
3:20 AM61 °FCool.7 mph88%30.21 "HgN/A
2:50 AM63 °FMild.8 mph83%30.21 "HgN/A
2:20 AM63 °FMild.8 mph83%30.21 "HgN/A
1:50 AM63 °FMild.6 mph83%30.21 "HgN/A
1:20 AM63 °FMild.6 mph83%30.24 "HgN/A
12:50 AM63 °FMild.6 mph83%30.24 "HgN/A
12:20 AM63 °FMild.6 mph83%30.24 "HgN/A
11:50 PM
Wed, Aug 24
64 °FMild.3 mph83%30.24 "HgN/A
11:20 PM64 °FMild.6 mph78%30.24 "HgN/A
10:50 PM66 °FMild.6 mph78%30.24 "HgN/A
10:20 PM66 °FMild.5 mph73%30.24 "HgN/A
9:50 PM68 °FPassing clouds.7 mph73%30.24 "HgN/A
9:20 PM68 °FMild.5 mph73%30.24 "HgN/A
8:50 PM70 °FMild.6 mph64%30.24 "HgN/A
8:20 PM72 °FMild.8 mph65%30.24 "HgN/A
7:50 PM73 °FSunny.7 mph61%30.24 "Hg10 mi
7:20 PM77 °FSunny.7 mph51%30.21 "Hg10 mi
6:50 PM77 °FSunny.7 mph54%30.21 "Hg10 mi
6:20 PM79 °FPassing clouds.8 mph48%30.24 "HgN/A
5:50 PM79 °FPassing clouds.8 mph51%30.24 "HgN/A
5:20 PM81 °FPassing clouds.7 mph48%30.24 "HgN/A
4:50 PM81 °FPassing clouds.8 mph48%30.24 "HgN/A
4:20 PM79 °FPassing clouds.10 mph48%30.24 "HgN/A
3:50 PM79 °FPassing clouds.8 mph48%30.24 "HgN/A
3:20 PM79 °FPassing clouds.9 mph48%30.24 "HgN/A
2:50 PM79 °FPassing clouds.8 mph48%30.27 "HgN/A
2:20 PM79 °FPassing clouds.7 mph48%30.27 "HgN/A
1:50 PM79 °FPassing clouds.9 mph48%30.27 "HgN/A
1:20 PM77 °FPassing clouds.9 mph51%30.27 "HgN/A
12:50 PM77 °FPassing clouds.7 mph51%30.27 "HgN/A
12:20 PM77 °FPassing clouds.7 mph51%30.30 "HgN/A
11:50 AM75 °FPassing clouds.7 mph54%30.30 "HgN/A
11:20 AM75 °FPassing clouds.8 mph57%30.30 "HgN/A
10:50 AM73 °FPassing clouds.6 mph61%30.30 "HgN/A
10:20 AM72 °FPassing clouds.6 mph65%30.30 "HgN/A
Weather by CustomWeather, © 2016

See weather overviewHow to use our weather pages